Back to catalog

COSMOS 785

AliveNavigationLEO
NORAD 8473·PAYLOAD·🇷🇺 Russia

Launched Dec 12, 1975 from Baikonur Cosmodrome

Loading…

Next Passes (next 24 hours)

TLE

FreshSource: Space-Track

Epoch: Sep 14, 2026, 14:38 UTC

1 08473U 75116A   26257.60994445 -.00000054  00000-0  30453-4 0  9994
2 08473  65.0763 125.1786 0095035 267.6091  91.4086 13.82331870561404

Track COSMOS 785 in real time with AllMySat

Download on the App Store